Weather History for Waskish, MN

Change the Weather History Date:

Tuesday, September 18, 2012

  Actual Average (KBDE) Record (KBDE)
Temperature  
Mean Temperature 39 °F -  
Max Temperature 57 °F 68 °F 85 °F (1989)
Min Temperature 21 °F 46 °F 27 °F (2012)
Degree Days  
Heating Degree Days 26    
Moisture  
Dew Point 32 °F    
Average Humidity 67    
Maximum Humidity 100    
Minimum Humidity 36    
Precipitation  
Precipitation 0.00 in - - ()
Sea Level Pressure  
Sea Level Pressure 29.93 in    
Wind  
Wind Speed 3 mph (SW)    
Max Wind Speed 12 mph    
Max Gust Speed -    
Visibility 10 miles    
Events      
Averages and records for this station are not official NWS values.
T = Trace of Precipitation, MM = Missing Value Source: NWS Daily Summary

Daily Weather History Graph

Daily Weather History Graph

Search for Another Location

Airport:

Trip Planner

Search our weather history database for the weather conditions in past years. The results will help you decide how hot, cold, wet, or windy it might be!

Date:

Astronomy

Sep. 18, 2012 Rise Set
Actual Time 6:59 AM CDT 7:23 PM CDT
Civil Twilight 6:28 AM CDT 7:54 PM CDT
Nautical Twilight 5:51 AM CDT 8:31 PM CDT
Astronomical Twilight 5:13 AM CDT 9:09 PM CDT
Moon 10:19 AM CDT (9/18) 8:25 PM CDT (9/18)
Length of Visible Light 13h 25m
Length of Day
12h 23m
Waxing Crescent, 9% of the Moon is Illuminated
Sep 18
Waxing Crescent
Sep 22
First Quarter
Sep 29
Full
Oct 8
Last Quarter
Oct 15
New

Hourly Weather History & Observations

Time (CDT) Temp. Windchill Dew Point Humidity Pressure Visibility Wind Dir Wind Speed Gust Speed Precip Events Conditions
12:14 AM 42.8 °F 39.3 °F 35.6 °F 76% 30.02 in 10.0 mi NNW 5.8 mph - N/A   Scattered Clouds
12:35 AM 41.0 °F 36.4 °F 33.8 °F 76% 30.02 in 10.0 mi NW 6.9 mph - N/A   Scattered Clouds
12:54 AM 37.4 °F 33.8 °F 32.0 °F 81% 30.02 in 10.0 mi NNW 4.6 mph - N/A   Clear
1:14 AM 35.6 °F - 30.2 °F 81% 30.02 in 10.0 mi Calm Calm - N/A   Clear
1:35 AM 33.8 °F - 28.4 °F 81% 30.03 in 10.0 mi Calm Calm - N/A   Clear
1:54 AM 33.8 °F - 30.2 °F 87% 30.03 in 10.0 mi Calm Calm - N/A   Clear
2:35 AM 30.2 °F - 28.4 °F 93% 30.02 in 10.0 mi Calm Calm - N/A   Clear
2:54 AM 28.4 °F - 26.6 °F 93% 30.02 in 10.0 mi Calm Calm - N/A   Clear
3:14 AM 26.6 °F - 26.6 °F 100% 30.02 in 10.0 mi Calm Calm - N/A   Clear
3:34 AM 26.6 °F - 26.6 °F 100% 30.01 in 10.0 mi Calm Calm - N/A   Clear
3:54 AM 26.6 °F - 24.8 °F 93% 30.01 in 10.0 mi Calm Calm - N/A   Clear
4:14 AM 24.8 °F - 24.8 °F 100% 30.01 in 10.0 mi Calm Calm - N/A   Clear
4:34 AM 24.8 °F - 23.0 °F 93% 30.01 in 10.0 mi Calm Calm - N/A   Clear
4:54 AM 24.8 °F - 23.0 °F 93% 30.01 in 10.0 mi Calm Calm - N/A   Clear
5:14 AM 24.8 °F - 24.8 °F 100% 30.01 in 10.0 mi Calm Calm - N/A   Clear
5:34 AM 23.0 °F - 21.2 °F 93% 30.01 in 10.0 mi Calm Calm - N/A   Clear
5:54 AM 23.0 °F - 21.2 °F 93% 30.01 in 10.0 mi Calm Calm - N/A   Clear
6:14 AM 23.0 °F - 21.2 °F 93% 30.01 in 10.0 mi Calm Calm - N/A   Clear
6:34 AM 21.2 °F - 21.2 °F 100% 30.01 in 10.0 mi Calm Calm - N/A   Clear
6:54 AM 21.2 °F - 21.2 °F 100% 30.01 in 10.0 mi Calm Calm - N/A   Clear
7:14 AM 21.2 °F - 21.2 °F 100% 30.01 in 10.0 mi Calm Calm - N/A   Clear
7:34 AM 23.0 °F - 21.2 °F 93% 30.01 in 10.0 mi Calm Calm - N/A   Clear
7:54 AM 26.6 °F - 24.8 °F 93% 30.01 in 10.0 mi Calm Calm - N/A   Clear
8:14 AM 30.2 °F - 28.4 °F 93% 30.01 in 10.0 mi Calm Calm - N/A   Clear
8:54 AM 39.2 °F 37.0 °F 37.4 °F 93% 30.01 in 10.0 mi SSE 3.5 mph - N/A   Clear
9:14 AM 42.8 °F 41.1 °F 37.4 °F 81% 30.01 in 10.0 mi South 3.5 mph - N/A   Clear
9:34 AM 46.4 °F 45.2 °F 35.6 °F 66% 30.00 in 10.0 mi South 3.5 mph - N/A   Clear
9:54 AM 48.2 °F - 35.6 °F 62% 30.00 in 10.0 mi South 3.5 mph - N/A   Clear
10:15 AM 51.8 °F - 35.6 °F 54% 30.01 in 10.0 mi SW 4.6 mph - N/A   Clear
10:34 AM 51.8 °F - 35.6 °F 54% 30.00 in 10.0 mi SW 4.6 mph - N/A   Clear
10:54 AM 51.8 °F - 35.6 °F 54% 30.00 in 10.0 mi WSW 6.9 mph - N/A   Clear
11:15 AM 53.6 °F - 35.6 °F 51% 29.99 in 10.0 mi WSW 5.8 mph - N/A   Clear
11:34 AM 53.6 °F - 37.4 °F 54% 29.99 in 10.0 mi WSW 5.8 mph - N/A   Clear
11:54 AM 53.6 °F - 37.4 °F 54% 29.98 in 10.0 mi West 4.6 mph - N/A   Clear
12:15 PM 55.4 °F - 35.6 °F 47% 29.98 in 10.0 mi SW 4.6 mph - N/A   Clear
12:34 PM 55.4 °F - 35.6 °F 47% 29.97 in 10.0 mi West 6.9 mph - N/A   Clear
12:54 PM 55.4 °F - 35.6 °F 47% 29.97 in 10.0 mi WSW 6.9 mph - N/A   Clear
1:14 PM 55.4 °F - 35.6 °F 47% 29.96 in 10.0 mi West 6.9 mph - N/A   Clear
1:34 PM 55.4 °F - 35.6 °F 47% 29.95 in 10.0 mi West 9.2 mph - N/A   Clear
2:14 PM 57.2 °F - 35.6 °F 44% 29.94 in 10.0 mi WSW 9.2 mph - N/A   Clear
2:34 PM 57.2 °F - 35.6 °F 44% 29.93 in 10.0 mi West 9.2 mph - N/A   Clear
2:54 PM 57.2 °F - 35.6 °F 44% 29.92 in 10.0 mi West 9.2 mph - N/A   Clear
3:14 PM 57.2 °F - 35.6 °F 44% 29.91 in 10.0 mi West 8.1 mph - N/A   Clear
3:34 PM 57.2 °F - 35.6 °F 44% 29.90 in 10.0 mi WSW 10.4 mph - N/A   Clear
3:54 PM 57.2 °F - 35.6 °F 44% 29.90 in 10.0 mi WSW 10.4 mph - N/A   Clear
4:14 PM 57.2 °F - 35.6 °F 44% 29.89 in 10.0 mi West 11.5 mph - N/A   Clear
4:34 PM 57.2 °F - 35.6 °F 44% 29.88 in 10.0 mi WSW 10.4 mph - N/A   Clear
4:54 PM 57.2 °F - 35.6 °F 44% 29.87 in 10.0 mi WSW 10.4 mph - N/A   Clear
5:14 PM 57.2 °F - 33.8 °F 41% 29.87 in 10.0 mi WSW 8.1 mph - N/A   Scattered Clouds
5:34 PM 57.2 °F - 33.8 °F 41% 29.86 in 10.0 mi WSW 8.1 mph - N/A   Scattered Clouds
5:54 PM 57.2 °F - 30.2 °F 36% 29.85 in 10.0 mi South 5.8 mph - N/A   Clear
6:14 PM 55.4 °F - 30.2 °F 38% 29.85 in 10.0 mi South 4.6 mph - N/A   Scattered Clouds
6:34 PM 53.6 °F - 32.0 °F 44% 29.84 in 10.0 mi South 3.5 mph - N/A   Scattered Clouds
6:54 PM 51.8 °F - 33.8 °F 50% 29.84 in 10.0 mi Calm Calm - N/A   Scattered Clouds
7:14 PM 50.0 °F - 33.8 °F 54% 29.83 in 10.0 mi Calm Calm - N/A   Mostly Cloudy
7:34 PM 48.2 °F - 33.8 °F 58% 29.82 in 10.0 mi South 3.5 mph - N/A   Mostly Cloudy
7:54 PM 46.4 °F - 33.8 °F 62% 29.82 in 10.0 mi Calm Calm - N/A   Mostly Cloudy
8:14 PM 44.6 °F - 33.8 °F 66% 29.82 in 10.0 mi Calm Calm - N/A   Overcast
8:34 PM 44.6 °F - 33.8 °F 66% 29.81 in 10.0 mi Calm Calm - N/A   Scattered Clouds
8:54 PM 46.4 °F 44.3 °F 35.6 °F 66% 29.80 in 10.0 mi SSE 4.6 mph - N/A   Clear
9:14 PM 48.2 °F - 35.6 °F 62% 29.79 in 10.0 mi SSE 4.6 mph - N/A   Clear
9:34 PM 48.2 °F - 35.6 °F 62% 29.79 in 10.0 mi SSE 3.5 mph - N/A   Scattered Clouds
9:54 PM 48.2 °F - 35.6 °F 62% 29.78 in 10.0 mi SSE 3.5 mph - N/A   Mostly Cloudy
10:14 PM 48.2 °F - 35.6 °F 62% 29.77 in 10.0 mi SE 4.6 mph - N/A   Overcast
10:34 PM 48.2 °F - 35.6 °F 62% 29.75 in 10.0 mi SE 4.6 mph - N/A   Overcast
10:54 PM 48.2 °F - 35.6 °F 62% 29.75 in 10.0 mi SE 4.6 mph - N/A   Overcast
11:14 PM 50.0 °F - 35.6 °F 58% 29.73 in 10.0 mi SSE 6.9 mph - N/A   Overcast
11:34 PM 50.0 °F - 35.6 °F 58% 29.72 in 10.0 mi SSE 6.9 mph - N/A   Mostly Cloudy
11:54 PM 50.0 °F - 35.6 °F 58% 29.71 in 10.0 mi SSE 4.6 mph - N/A   Scattered Clouds